Powrót do katalogu

STARLINK-4288

AktywnyŁącznośćVLEO
NORAD 53005·PAYLOAD·🇺🇸 United States

Wystrzelony Jul 7, 2022 z Cape Canaveral Space Force Station

Loading…

Następne Przeloty (najbliższe 24 godziny)

TLE

ŚwieżeSource: CelesTrak SupGP

Epoka: Sep 14, 2026, 21:49 UTC

1 53005C 22076V   26257.90951389  .00002823  00000+0  83411-4 0  2578
2 53005  53.1580 310.2116 0001045  65.1003 212.5510 15.34388515    16

Śledź STARLINK-4288 w czasie rzeczywistym z AllMySat

Download on the App Store